• In Hungary
  • List of Countries
  • For 7 days
  • Water Temperature
  • Satellite Maps
  • Weather Map
  • News
  • Weather Widgets
  • user-avatar
    Login

    Hourly Weather Bolshoe Kuzemkino

    Today, 25 June, Monday

    Time Temperature Precipitation Wind Pressure Humidity
    00:00 +13°C° 0 mm 2 mps 746 mmHg 90%
    01:00 +12°C° 0 mm 1 mps 746 mmHg 91%
    02:00 +11°C° 0 mm 1 mps 747 mmHg 93%
    03:00 +12°C° 0.4 mm 1 mps 747 mmHg 91%
    04:00 +12°C° 0.4 mm 1 mps 747 mmHg 89%
    05:00 +12°C° 0.4 mm 1 mps 747 mmHg 88%
    06:00 +14°C° 0 mm 2 mps 748 mmHg 80%
    07:00 +16°C° 0 mm 2 mps 748 mmHg 72%
    08:00 +18°C° 0 mm 2 mps 748 mmHg 60%
    09:00 +19°C° 0 mm 2 mps 748 mmHg 56%
    10:00 +20°C° 0 mm 3 mps 748 mmHg 52%
    11:00 +22°C° 0 mm 3 mps 748 mmHg 48%
    12:00 +22°C° 0 mm 3 mps 749 mmHg 46%
    13:00 +24°C° 0 mm 3 mps 749 mmHg 44%
    14:00 +24°C° 0 mm 2 mps 749 mmHg 42%
    15:00 +24°C° 0 mm 2 mps 749 mmHg 44%
    16:00 +24°C° 0 mm 2 mps 749 mmHg 46%
    17:00 +24°C° 0 mm 2 mps 750 mmHg 48%
    18:00 +21°C° 0 mm 2 mps 750 mmHg 56%
    19:00 +20°C° 0 mm 1 mps 750 mmHg 64%
    20:00 +19°C° 0 mm 1 mps 750 mmHg 71%
    21:00 +16°C° 0 mm 1 mps 751 mmHg 74%
    22:00 +15°C° 0 mm 1 mps 751 mmHg 77%
    23:00 +14°C° 0 mm 1 mps 752 mmHg 80%

    Tomorrow, 26 June, Tuesday

    Time Temperature Precipitation Wind Pressure Humidity
    00:00 +13°C° 0 mm 1 mps 752 mmHg 82%
    01:00 +13°C° 0 mm 1 mps 752 mmHg 84%
    02:00 +11°C° 0 mm 0 mps 753 mmHg 86%
    03:00 +12°C° 0 mm 0 mps 753 mmHg 83%
    04:00 +13°C° 0 mm 0 mps 753 mmHg 79%
    05:00 +14°C° 0 mm 0 mps 754 mmHg 76%
    06:00 +17°C° 0 mm 0 mps 754 mmHg 69%
    07:00 +19°C° 0 mm 0 mps 754 mmHg 62%
    08:00 +23°C° 0 mm 1 mps 754 mmHg 54%
    09:00 +24°C° 0 mm 1 mps 754 mmHg 50%
    10:00 +25°C° 0 mm 1 mps 754 mmHg 46%
    11:00 +26°C° 0 mm 1 mps 754 mmHg 41%
    12:00 +26°C° 0 mm 1 mps 754 mmHg 42%
    13:00 +26°C° 0 mm 1 mps 754 mmHg 44%
    14:00 +26°C° 0 mm 1 mps 754 mmHg 45%
    15:00 +25°C° 0 mm 1 mps 754 mmHg 47%
    16:00 +25°C° 0 mm 1 mps 754 mmHg 49%
    17:00 +25°C° 0 mm 1 mps 754 mmHg 51%
    18:00 +23°C° 0 mm 1 mps 755 mmHg 58%
    19:00 +21°C° 0 mm 1 mps 755 mmHg 65%
    20:00 +20°C° 0 mm 1 mps 755 mmHg 72%
    21:00 +19°C° 0 mm 1 mps 755 mmHg 74%
    22:00 +18°C° 0 mm 1 mps 755 mmHg 77%
    23:00 +15°C° 0 mm 1 mps 755 mmHg 79%

    Day after tomorrow, 27 June, Wednesday

    Time Temperature Precipitation Wind Pressure Humidity
    00:00 +15°C° 0 mm 1 mps 756 mmHg 81%
    01:00 +15°C° 0 mm 1 mps 756 mmHg 83%
    02:00 +14°C° 0 mm 1 mps 756 mmHg 84%
    03:00 +15°C° 0 mm 1 mps 756 mmHg 82%
    04:00 +16°C° 0 mm 1 mps 756 mmHg 80%
    05:00 +18°C° 0 mm 1 mps 757 mmHg 77%
    06:00 +20°C° 0 mm 1 mps 757 mmHg 69%
    07:00 +22°C° 0 mm 1 mps 757 mmHg 62%
    08:00 +24°C° 0 mm 1 mps 757 mmHg 54%
    09:00 +25°C° 0 mm 1 mps 757 mmHg 49%
    10:00 +26°C° 0 mm 2 mps 757 mmHg 44%
    11:00 +27°C° 0 mm 2 mps 757 mmHg 39%
    12:00 +27°C° 0 mm 2 mps 756 mmHg 38%
    13:00 +27°C° 0 mm 2 mps 756 mmHg 37%
    14:00 +28°C° 0 mm 2 mps 756 mmHg 36%
    15:00 +27°C° 0 mm 2 mps 756 mmHg 39%
    16:00 +27°C° 0 mm 2 mps 756 mmHg 42%
    17:00 +27°C° 0 mm 2 mps 756 mmHg 45%
    18:00 +25°C° 0 mm 2 mps 756 mmHg 54%
    19:00 +23°C° 0 mm 2 mps 756 mmHg 62%
    20:00 +21°C° 0 mm 1 mps 756 mmHg 71%
    21:00 +20°C° 0 mm 1 mps 756 mmHg 73%
    22:00 +19°C° 0 mm 1 mps 756 mmHg 76%
    23:00 +16°C° 0 mm 1 mps 756 mmHg 78%

    28 June, Thursday

    Time Temperature Precipitation Wind Pressure Humidity
    00:00 +16°C° 0 mm 1 mps 757 mmHg 79%
    01:00 +15°C° 0 mm 1 mps 757 mmHg 81%
    02:00 +15°C° 0 mm 1 mps 757 mmHg 82%
    03:00 +15°C° 0 mm 1 mps 757 mmHg 81%
    04:00 +16°C° 0 mm 1 mps 757 mmHg 79%
    05:00 +18°C° 0 mm 1 mps 757 mmHg 77%
    06:00 +20°C° 0 mm 1 mps 757 mmHg 69%
    07:00 +22°C° 0 mm 1 mps 757 mmHg 62%
    08:00 +24°C° 0 mm 1 mps 757 mmHg 54%
    09:00 +25°C° 0 mm 2 mps 757 mmHg 49%
    10:00 +26°C° 0 mm 2 mps 756 mmHg 45%
    11:00 +27°C° 0 mm 2 mps 756 mmHg 40%
    12:00 +28°C° 0 mm 2 mps 756 mmHg 39%
    13:00 +28°C° 0 mm 2 mps 755 mmHg 38%
    14:00 +28°C° 0 mm 2 mps 755 mmHg 37%
    15:00 +28°C° 0 mm 2 mps 755 mmHg 39%
    16:00 +28°C° 0 mm 2 mps 754 mmHg 42%
    17:00 +28°C° 0 mm 2 mps 754 mmHg 44%
    18:00 +25°C° 0 mm 2 mps 754 mmHg 52%
    19:00 +23°C° 0 mm 2 mps 754 mmHg 60%
    20:00 +21°C° 0 mm 1 mps 754 mmHg 68%
    21:00 +20°C° 0 mm 1 mps 753 mmHg 68%
    22:00 +19°C° 0 mm 1 mps 753 mmHg 68%
    23:00 +16°C° 0 mm 1 mps 753 mmHg 68%

    29 June, Friday

    Time Temperature Precipitation Wind Pressure Humidity
    00:00 +16°C° 0 mm 1 mps 753 mmHg 69%
    01:00 +15°C° 0 mm 1 mps 753 mmHg 70%
    02:00 +13°C° 0 mm 0 mps 753 mmHg 71%
    03:00 +14°C° 0 mm 0 mps 752 mmHg 71%
    04:00 +15°C° 0 mm 0 mps 752 mmHg 70%
    05:00 +18°C° 0 mm 1 mps 751 mmHg 69%
    06:00 +20°C° 0 mm 1 mps 751 mmHg 64%
    07:00 +22°C° 0 mm 1 mps 750 mmHg 58%
    08:00 +24°C° 0 mm 2 mps 750 mmHg 52%
    09:00 +26°C° 0 mm 2 mps 749 mmHg 48%
    10:00 +27°C° 0 mm 3 mps 748 mmHg 45%
    11:00 +28°C° 0 mm 3 mps 748 mmHg 42%
    12:00 +28°C° 0 mm 3 mps 747 mmHg 43%
    13:00 +28°C° 0 mm 3 mps 746 mmHg 45%
    14:00 +27°C° 0 mm 4 mps 745 mmHg 47%
    15:00 +27°C° 0 mm 3 mps 744 mmHg 50%
    16:00 +26°C° 0 mm 3 mps 744 mmHg 52%
    17:00 +26°C° 0 mm 3 mps 743 mmHg 55%
    18:00 +23°C° 0.6 mm 4 mps 742 mmHg 64%
    19:00 +21°C° 0.6 mm 4 mps 742 mmHg 73%
    20:00 +19°C° 0.6 mm 4 mps 741 mmHg 82%
    21:00 +18°C° 0.8 mm 3 mps 741 mmHg 87%
    22:00 +16°C° 0.8 mm 3 mps 741 mmHg 91%
    23:00 +13°C° 0.8 mm 3 mps 741 mmHg 96%

    30 June, Saturday

    Time Temperature Precipitation Wind Pressure Humidity
    00:00 +12°C° 0.1 mm 3 mps 741 mmHg 95%
    01:00 +11°C° 0.1 mm 3 mps 741 mmHg 95%
    02:00 +10°C° 0.1 mm 3 mps 741 mmHg 95%
    03:00 +10°C° 0 mm 3 mps 741 mmHg 93%
    04:00 +10°C° 0 mm 3 mps 741 mmHg 92%
    05:00 +9°C° 0 mm 3 mps 741 mmHg 90%
    06:00 +10°C° 0 mm 4 mps 741 mmHg 85%
    07:00 +11°C° 0 mm 4 mps 741 mmHg 79%
    08:00 +12°C° 0 mm 4 mps 741 mmHg 74%
    09:00 +12°C° 0.1 mm 5 mps 741 mmHg 75%
    10:00 +12°C° 0.1 mm 5 mps 741 mmHg 77%
    11:00 +12°C° 0.1 mm 5 mps 741 mmHg 78%
    12:00 +12°C° 0.1 mm 5 mps 741 mmHg 76%
    13:00 +12°C° 0.1 mm 5 mps 742 mmHg 74%
    14:00 +11°C° 0.1 mm 6 mps 742 mmHg 72%
    15:00 +10°C° 0.1 mm 5 mps 742 mmHg 73%
    16:00 +9°C° 0.1 mm 5 mps 742 mmHg 75%
    17:00 +9°C° 0.1 mm 5 mps 742 mmHg 77%
    18:00 +8°C° 0.2 mm 5 mps 742 mmHg 81%
    19:00 +7°C° 0.2 mm 5 mps 742 mmHg 85%
    20:00 +7°C° 0.2 mm 4 mps 742 mmHg 89%
    21:00 +6°C° 0.2 mm 4 mps 742 mmHg 90%
    22:00 +6°C° 0.2 mm 5 mps 742 mmHg 92%
    23:00 +6°C° 0.2 mm 5 mps 742 mmHg 93%
    Show more